| time (UTC) | temp C | wind direction | speed KPH | gust KPH | rain 1hr cm | rain 24hr cm | rain mn cm | humidity % | barometer mb |
| 20260507031543 | 14 | 224 | 1.6 | 6.4 | 0.03 | 0.76 | 0.76 | 93 | 1009.4 |
| 20260507030040 | 15 | 271 | 0.0 | 1.6 | 0.00 | 0.71 | 0.71 | 94 | 1008.9 |
| 20260507024544 | 15 | 211 | 0.0 | 6.4 | 0.00 | 0.71 | 0.71 | 94 | 1008.5 |
| 20260507023039 | 15 | 193 | 0.0 | 1.6 | 0.00 | 0.71 | 0.71 | 93 | 1008.3 |
| 20260507021540 | 15 | 290 | 0.0 | 4.8 | 0.00 | 0.71 | 0.71 | 93 | 1008.4 |
| 20260507020045 | 15 | 98 | 0.0 | 4.8 | 0.00 | 0.71 | 0.71 | 93 | 1008.5 |
| 20260507014537 | 15 | 121 | 0.0 | 8.0 | 0.00 | 0.71 | 0.71 | 93 | 1008.7 |
| 20260507013038 | 15 | 259 | 0.0 | 6.4 | 0.00 | 0.71 | 0.71 | 93 | 1008.8 |
| 20260507011536 | 15 | 193 | 0.0 | 4.8 | 0.00 | 0.71 | 0.71 | 93 | 1008.8 |
| 20260507010040 | 15 | 343 | 0.0 | 4.8 | 0.00 | 0.71 | 0.71 | 93 | 1008.8 |
| 20260507004535 | 15 | 200 | 0.0 | 4.8 | 0.03 | 0.71 | 0.71 | 93 | 1008.7 |
| 20260507003034 | 15 | 360 | 0.0 | 4.8 | 0.05 | 0.71 | 0.71 | 93 | 1008.8 |
| 20260507001539 | 15 | 237 | 0.0 | 4.8 | 0.10 | 0.71 | 0.71 | 93 | 1008.7 |
| 20260507000034 | 15 | 336 | 0.0 | 4.8 | 0.13 | 0.71 | 0.71 | 93 | 1008.5 |
| 20260506234531 | 15 | 121 | 0.0 | 8.0 | 0.10 | 0.71 | 0.71 | 93 | 1008.4 |
| 20260506233031 | 15 | 264 | 0.0 | 9.7 | 0.10 | 0.69 | 0.69 | 93 | 1008.5 |
| 20260506231529 | 15 | 209 | 1.6 | 9.7 | 0.08 | 0.64 | 0.64 | 93 | 1008.8 |
| 20260506230031 | 15 | 295 | 1.6 | 8.0 | 0.13 | 0.61 | 0.61 | 92 | 1008.7 |
| 20260506224527 | 15 | 28 | 0.0 | 9.7 | 0.18 | 0.61 | 0.61 | 92 | 1008.8 |
| 20260506223026 | 15 | 105 | 1.6 | 11.3 | 0.15 | 0.58 | 0.58 | 92 | 1008.8 |
| 20260506221525 | 15 | 299 | 0.0 | 6.4 | 0.15 | 0.56 | 0.56 | 92 | 1009.0 |
| 20260506220023 | 15 | 131 | 0.0 | 3.2 | 0.10 | 0.48 | 0.48 | 92 | 1009.1 |
| 20260506214522 | 15 | 288 | 0.0 | 11.3 | 0.08 | 0.43 | 0.43 | 91 | 1009.2 |
| 20260506213020 | 15 | 312 | 0.0 | 6.4 | 0.13 | 0.43 | 0.43 | 91 | 1009.4 |
| 20260506211518 | 16 | 255 | 0.0 | 1.6 | 0.15 | 0.41 | 0.41 | 91 | 1009.7 |
| 20260506210021 | 16 | 288 | 0.0 | 3.2 | 0.18 | 0.38 | 0.38 | 90 | 1009.8 |
| 20260506204516 | 16 | 296 | 0.0 | 12.9 | 0.18 | 0.36 | 0.36 | 90 | 1009.9 |
| 20260506203016 | 16 | 267 | 0.0 | 0.0 | 0.15 | 0.30 | 0.30 | 90 | 1009.9 |
| 20260506201515 | 16 | 283 | 0.0 | 0.0 | 0.15 | 0.25 | 0.25 | 90 | 1009.9 |
| 20260506200014 | 16 | 314 | 0.0 | 0.0 | 0.13 | 0.20 | 0.20 | 90 | 1009.7 |
| 20260506194514 | 17 | 172 | 0.0 | 0.0 | 0.15 | 0.18 | 0.18 | 90 | 1009.9 |
| 20260506193013 | 17 | 30 | 0.0 | 0.0 | 0.13 | 0.15 | 0.15 | 89 | 1009.8 |
| 20260506191512 | 17 | 295 | 0.0 | 0.0 | 0.10 | 0.10 | 0.10 | 88 | 1010.2 |
| 20260506190011 | 17 | 295 | 0.0 | 0.0 | 0.08 | 0.08 | 0.08 | 86 | 1010.2 |
| 20260506184511 | 17 | 308 | 0.0 | 0.0 | 0.03 | 0.03 | 0.03 | 82 | 1010.4 |
| 20260506183010 | 19 | 291 | 0.0 | 0.0 | 0.03 | 0.03 | 0.03 | 75 | 1009.7 |
| 20260506181507 | 21 | 252 | 0.0 | 9.7 | 0.00 | 0.00 | 0.00 | 64 | 1010.1 |
| 20260506180006 | 22 | 9 | 1.6 | 19.3 | 0.00 | 0.00 | 0.00 | 54 | 1010.0 |
| 20260506174505 | 22 | 114 | 0.0 | 9.7 | 0.00 | 0.00 | 0.00 | 52 | 1009.9 |
| 20260506173005 | 23 | 246 | 0.0 | 11.3 | 0.00 | 0.00 | 0.00 | 52 | 1010.0 |
| 20260506171506 | 22 | 164 | 0.0 | 17.7 | 0.00 | 0.00 | 0.00 | 53 | 1010.4 |
| 20260506170107 | 22 | 315 | 0.0 | 6.4 | 0.00 | 0.00 | 0.00 | 58 | 1010.4 |
| 20260506164602 | 22 | 259 | 0.0 | 8.0 | 0.00 | 0.00 | 0.00 | 58 | 1010.5 |
| 20260506163105 | 22 | 79 | 0.0 | 4.8 | 0.00 | 0.00 | 0.00 | 58 | 1010.8 |
| 20260506161605 | 22 | 244 | 0.0 | 4.8 | 0.00 | 0.00 | 0.00 | 58 | 1011.0 |
| 20260506160050 | 22 | 279 | 0.0 | 4.8 | 0.00 | 0.00 | 0.00 | 59 | 1011.5 |
| 20260506154607 | 22 | 236 | 0.0 | 1.6 | 0.00 | 0.00 | 0.00 | 59 | 1011.7 |
| 20260506153044 | 21 | 230 | 0.0 | 4.8 | 0.00 | 0.00 | 0.00 | 61 | 1011.9 |
| 20260506151545 | 21 | 217 | 0.0 | 11.3 | 0.00 | 0.00 | 0.00 | 61 | 1012.1 |
| 20260506150050 | 21 | 288 | 0.0 | 12.9 | 0.00 | 0.00 | 0.00 | 62 | 1012.3 |
| 20260506144551 | 21 | 28 | 0.0 | 9.7 | 0.00 | 0.00 | 0.00 | 62 | 1012.1 |
| 20260506143042 | 21 | 82 | 0.0 | 9.7 | 0.00 | 0.00 | 0.00 | 63 | 1012.0 |
| 20260506141539 | 20 | 1 | 0.0 | 9.7 | 0.00 | 0.00 | 0.00 | 65 | 1011.8 |
| 20260506140048 | 19 | 110 | 0.0 | 4.8 | 0.00 | 0.00 | 0.00 | 69 | 1011.9 |
| 20260506134537 | 19 | 96 | 0.0 | 11.3 | 0.00 | 0.00 | 0.00 | 68 | 1012.2 |
| 20260506133043 | 18 | 261 | 0.0 | 3.2 | 0.00 | 0.00 | 0.00 | 69 | 1012.5 |
| 20260506131535 | 18 | 264 | 0.0 | 3.2 | 0.00 | 0.00 | 0.00 | 69 | 1012.3 |
| 20260506130030 | 18 | 96 | 0.0 | 19.3 | 0.00 | 0.00 | 0.00 | 70 | 1012.4 |
| 20260506124529 | 18 | 229 | 0.0 | 1.6 | 0.00 | 0.00 | 0.00 | 70 | 1012.2 |
| 20260506123029 | 18 | 239 | 0.0 | 4.8 | 0.00 | 0.00 | 0.00 | 70 | 1012.6 |
| 20260506121530 | 17 | 292 | 0.0 | 4.8 | 0.00 | 0.00 | 0.00 | 72 | 1012.5 |
| 20260506120036 | 17 | 260 | 0.0 | 14.5 | 0.00 | 0.00 | 0.00 | 73 | 1012.8 |
| 20260506114526 | 17 | 266 | 0.0 | 1.6 | 0.00 | 0.00 | 0.00 | 73 | 1012.7 |
| 20260506113026 | 17 | 29 | 0.0 | 3.2 | 0.00 | 0.00 | 0.00 | 74 | 1012.9 |
| 20260506111526 | 16 | 283 | 0.0 | 1.6 | 0.00 | 0.00 | 0.00 | 74 | 1012.8 |
| 20260506110025 | 16 | 253 | 0.0 | 0.0 | 0.00 | 0.00 | 0.00 | 75 | 1013.0 |
| 20260506104523 | 16 | 257 | 0.0 | 1.6 | 0.00 | 0.00 | 0.00 | 75 | 1012.9 |
| 20260506103030 | 16 | 342 | 0.0 | 0.0 | 0.00 | 0.00 | 0.00 | 75 | 1013.0 |
| 20260506101533 | 16 | 326 | 0.0 | 0.0 | 0.00 | 0.00 | 0.00 | 75 | 1013.0 |
| 20260506100029 | 16 | 101 | 0.0 | 0.0 | 0.00 | 0.00 | 0.00 | 75 | 1013.0 |
| 20260506094521 | 16 | 24 | 0.0 | 0.0 | 0.00 | 0.00 | 0.00 | 74 | 1012.8 |
| 20260506093019 | 16 | 248 | 0.0 | 0.0 | 0.00 | 0.00 | 0.00 | 74 | 1013.0 |
| 20260506091519 | 16 | 76 | 0.0 | 4.8 | 0.00 | 0.00 | 0.00 | 73 | 1012.8 |
| 20260506090016 | 16 | 249 | 0.0 | 1.6 | 0.00 | 0.00 | 0.00 | 72 | 1012.8 |
| 20260506084518 | 16 | 212 | 0.0 | 3.2 | 0.00 | 0.00 | 0.00 | 72 | 1012.8 |
| 20260506083014 | 16 | 164 | 0.0 | 1.6 | 0.00 | 0.00 | 0.00 | 71 | 1012.8 |
| 20260506081517 | 16 | 229 | 0.0 | 9.7 | 0.00 | 0.00 | 0.00 | 70 | 1012.8 |
| 20260506073012 | 17 | 3 | 0.0 | 0.0 | 0.00 | 0.00 | 0.00 | 67 | 1012.5 |
| 20260506071510 | 17 | 141 | 0.0 | 1.6 | 0.00 | 0.00 | 0.00 | 67 | 1012.4 |
| 20260506061506 | 17 | 211 | 0.0 | 0.0 | 0.00 | 0.00 | 0.00 | 65 | 1012.2 |
| 20260506044658 | 17 | 241 | 0.0 | 1.6 | 0.00 | 0.00 | 0.00 | 62 | 1012.8 |
| 20260506043054 | 17 | 311 | 0.0 | 1.6 | 0.00 | 0.00 | 0.00 | 60 | 1012.8 |
| 20260506041554 | 18 | 248 | 0.0 | 1.6 | 0.00 | 0.00 | 0.00 | 59 | 1012.7 |
| 20260506040049 | 18 | 198 | 0.0 | 8.0 | 0.00 | 0.00 | 0.00 | 58 | 1012.6 |
| 20260506034549 | 18 | 3 | 0.0 | 6.4 | 0.00 | 0.00 | 0.00 | 58 | 1012.4 |
| 20260506033052 | 18 | 95 | 0.0 | 0.0 | 0.00 | 0.00 | 0.00 | 57 | 1012.4 |